Location: Newark
(44.4156°N, 12.1972°E)
Time: 15:41:34
(UTC+00:00)

STARLINK-1090 - Pass Details

Date: 01 February 2020
Orbit: 348 x 351 km, 53.0° (Epoch: 28 February)

Event Time Altitude Azimuth Distance (km) Brightness Sun altitude
Rises 17:28:43 0° 301° (WNW) 2,165 7.4 -12.6°
Reaches altitude 10° 17:30:45 10° 297° (WNW) 1,319 6.4 -12.9°
Maximum altitude 17:33:38 56° 218° (SW) 422 3.3 -13.4°
Enters shadow 17:36:09 13° 140° (SE) 1,167 5.0 -13.9°
